COSMOS 2251 DEB

Satellite information

Favourite Embed

Satellite Type and Status

DEBRISIN ORBIT

Key statistics

Satellite COSMOS 2251 DEB at a glance.

Uptime

11709

Days in orbit

Revolutions

≈ 14.2

Per day

Orbit

LEO

Low Earth Orbit

Inclination

74.0

Latest

Satellite identification and parameters

Extended collection of information and parameters for COSMOS 2251 DEB.

Object identification

Identified? True

Debris? True

Object name: COSMOS 2251 DEB

International designator: 1993-036VF

Object number (NORAD): 34569

Object ID (CCSDS): 34569

Country: COMMONWEALTH OF INDEPENDENT STATES (CIS)

Current information (Y/N): Y

RCS size: SMALL

Orbital parameters

Period: 101.113 minutes

Inclination: 73.9913 deg

SMA: 7189.477 km

Apoapsis: 925.421 km

Periapsis: 697.263 km

RAAN: 126.3392 deg

Eccentricy: 0.0158675

Argument of periapsis: 350.738 deg

Mean anomaly: 159.0221 deg

Mean motion: 14.241536 rev/day

Mean motion (dot): 0.00001384 rev/day2

B* drag term: 0.00053774 1/REarth

Two-line elements (TLE)

Creation date: July 6, 2025, 6:05 p.m.

Reference frame: TEME

Reference center: EARTH

Epoch: July 6, 2025, 6:26 a.m. UTC

TLE line 0: 0 COSMOS 2251 DEB

TLE line 1: 1 34569U 93036VF 25187.26866462 .00001384 00000-0 53774-3 0 9996

TLE line 2: 2 34569 73.9913 126.3392 0158675 350.7380 159.0221 14.24153600846975

Live tracking on map

Real-time ground track for satellite COSMOS 2251 DEB.

In-orbit conjunctions

A list of the most updated potential collisions computed for object COSMOS 2251 DEB.

Target Orbit TCA Probability of collision Miss distance Type
CZ-6A DEB LEO 2024-12-01 10:45:40 0.0001726321 247.0 (m) DEBRIS
METEOR 2-20 DEB LEO 2024-09-06 00:52:06 0.0001321266 437.0 (m) DEBRIS

Associated space launch

Military communications satellite. Destroyed in a collision with Iridium 33.

COSMOS 2251 DEB was lifted into orbit during the mission ‘Kosmos-3M | Strela-2M 51’, on board a Kosmos-3M space rocket.

The launch took place on June 16, 1993, 4:17 a.m. from 132/1 (132L).

For more information about the launch, click the button.

Launch to space Kosmos-3M | Strela-2M 51
Kosmos-3M | Strela-2M 51

Agency: N/A

Status: Launch Successful

Launch date: June 16, 1993, 4:17 a.m. UTC

Rocket: Kosmos-3M

Launch pad: 132/1 (132L)

Location: Plesetsk Cosmodrome, Russian Federation

...

Latest news about this satellite

There are no fresh news available about this satellite. Check back as we update our databases every day.


Newsletter sign-up

Weekly statistics, charts and insights to help you stay on top of the space industry.